Location: Observatoire
(46.1952°N, 5.3391°E)
Time: 01:56:14
(UTC+02:00)

Max Valier Satellite - Visible Passes

Search period start: 24 April 2024 00:00
Search period end: 04 May 2024 00:00
Orbit: 357 x 364 km, 97.1° (Epoch: 23 April)

Date Brightness Start Highest point End Pass type
(mag) Time Alt. Az. Time Alt. Az. Time Alt. Az.
25 Apr ? 21:28:47 10° SSW 21:31:25 34° W 21:34:05 10° NNW visible
26 Apr ? 21:57:52 10° SW 21:59:34 14° W 22:01:15 10° WNW visible
28 Apr ? 21:20:51 10° S 21:23:36 46° W 21:26:23 10° NNW visible
29 Apr ? 21:48:40 10° SW 21:50:47 19° W 21:52:56 10° NW visible
02 May ? 21:36:51 10° SSW 21:39:21 27° W 21:41:51 10° NW visible
03 May ? 22:04:02 10° WSW 22:05:21 13° W 22:06:42 10° WNW visible
